Tracking 31027 objects as of 19-Jul-2025
HD Live streaming from Space Station
objects crossing your sky now

STARLINK-32339

Track STARLINK-32339 now!
10-day predictions
STARLINK-32339 is classified as:


NORAD ID: 61640
Int'l Code: 2024-191V
Perigee: 489.3 km
Apogee: 491.0 km
Inclination: 43.0 °
Period: 94.3 minutes
Semi major axis: 6861 km
RCS: Unknown
Launch date: October 23, 2024
Source: United States (US)
Launch site: AIR FORCE EASTERN TEST RANGE (AFETR)
Your satellite tracking list
BELINTERSAT 1
Track 1 satellite(s)




NASA's NSSDC Master Catalog

Two Line Element Set (TLE):
1 61640U 24191V   25199.56070149  .00000470  00000-0  26609-4 0  9990
2 61640  42.9999  36.3713 0001233 268.4710  91.6000 15.27579304 42444
Source of the keplerian elements: AFSPC